PGT5AJ LTFJ-LTFE

Flight info

Callsign PGT5AJ
Flight time 0h 55m
Altitude 30000
Route ROXUK T409 NUMTI DCT KULAR T44 KAVAK
Aircraft B738/M-SDE2E3FGHIRWXY/LB1

Departure

Time 2026-05-08 17:50
Airport Istanbul Sabiha Gökçen International Airport (LTFJ)

Arrival

Time 2026-05-08 18:46
Airport Milas Bodrum International Airport (LTFE)
Time Latitude Longitude Altitude Speed Heading
2026-05-08 17:16 40.90608 29.31576 318 ft 0 kts 333°
2026-05-08 17:35 40.90593 29.31586 320 ft 2 kts 333°
2026-05-08 17:35 40.90578 29.31596 320 ft 2 kts 333°
2026-05-08 17:35 40.90563 29.31606 320 ft 2 kts 333°
2026-05-08 17:35 40.90549 29.31615 318 ft 2 kts 333°
2026-05-08 17:36 40.90534 29.31625 318 ft 2 kts 333°
2026-05-08 17:36 40.90520 29.31635 319 ft 2 kts 332°
2026-05-08 17:36 40.90510 29.31642 320 ft 2 kts 332°
2026-05-08 17:36 40.90491 29.31656 319 ft 2 kts 331°
2026-05-08 17:37 40.90481 29.31662 320 ft 1 kts 332°
2026-05-08 17:37 40.90481 29.31663 320 ft 0 kts 332°
2026-05-08 17:39 40.90493 29.31655 318 ft 6 kts 335°
2026-05-08 17:39 40.90523 29.31652 320 ft 7 kts 26°
2026-05-08 17:39 40.90548 29.31707 320 ft 7 kts 65°
2026-05-08 17:39 40.90576 29.31785 320 ft 7 kts 65°
2026-05-08 17:40 40.90597 29.31845 318 ft 7 kts 64°
2026-05-08 17:40 40.90600 29.31912 320 ft 10 kts 114°
2026-05-08 17:40 40.90537 29.31969 320 ft 12 kts 155°
2026-05-08 17:40 40.90481 29.32034 319 ft 11 kts 95°
2026-05-08 17:41 40.90509 29.32128 318 ft 11 kts 65°
2026-05-08 17:41 40.90532 29.32193 319 ft 12 kts 64°
2026-05-08 17:41 40.90568 29.32290 318 ft 12 kts 64°
2026-05-08 17:41 40.90596 29.32389 318 ft 11 kts 98°
2026-05-08 17:42 40.90535 29.32451 318 ft 12 kts 154°
2026-05-08 17:42 40.90440 29.32510 314 ft 18 kts 154°
2026-05-08 17:42 40.90330 29.32577 318 ft 17 kts 168°
2026-05-08 17:42 40.90232 29.32441 319 ft 16 kts 243°
2026-05-08 17:43 40.90198 29.32351 319 ft 16 kts 241°
2026-05-08 17:43 40.90180 29.32315 319 ft 2 kts 235°
2026-05-08 17:43 40.90153 29.32253 319 ft 13 kts 244°
2026-05-08 17:43 40.90115 29.32131 319 ft 14 kts 248°
2026-05-08 17:44 40.90050 29.32056 319 ft 14 kts 170°
2026-05-08 17:44 40.89963 29.32107 316 ft 15 kts 154°
2026-05-08 17:44 40.89856 29.32177 311 ft 15 kts 153°
2026-05-08 17:44 40.89754 29.32243 306 ft 17 kts 153°
2026-05-08 17:45 40.89650 29.32312 306 ft 15 kts 153°
2026-05-08 17:45 40.89555 29.32355 308 ft 14 kts 167°
2026-05-08 17:45 40.89499 29.32432 306 ft 13 kts 76°
2026-05-08 17:45 40.89537 29.32540 306 ft 13 kts 63°
2026-05-08 17:46 40.89575 29.32645 307 ft 13 kts 64°
2026-05-08 17:46 40.89613 29.32747 306 ft 12 kts 64°
2026-05-08 17:46 40.89650 29.32847 306 ft 12 kts 64°
2026-05-08 17:46 40.89689 29.32954 306 ft 14 kts 64°
2026-05-08 17:47 40.89738 29.33085 304 ft 18 kts 64°
2026-05-08 17:47 40.89796 29.33243 303 ft 20 kts 64°
2026-05-08 17:47 40.89856 29.33405 304 ft 19 kts 64°
2026-05-08 17:47 40.89914 29.33562 307 ft 19 kts 64°
2026-05-08 17:48 40.89966 29.33704 311 ft 7 kts 64°
2026-05-08 17:48 40.89982 29.33760 313 ft 7 kts 82°
2026-05-08 17:48 40.89967 29.33814 313 ft 6 kts 135°
2026-05-08 17:48 40.89923 29.33842 313 ft 7 kts 156°
2026-05-08 17:49 40.89880 29.33867 315 ft 7 kts 156°
2026-05-08 17:49 40.89835 29.33890 317 ft 8 kts 167°
2026-05-08 17:49 40.89802 29.33834 315 ft 10 kts 248°
2026-05-08 17:49 40.89793 29.33808 313 ft 9 kts 244°
2026-05-08 17:50 40.89649 29.33421 306 ft 86 kts 244°
2026-05-08 17:50 40.89284 29.32430 301 ft 152 kts 244°
2026-05-08 17:50 40.88760 29.31005 595 ft 184 kts 244°
2026-05-08 17:50 40.88180 29.29427 1339 ft 193 kts 245°
2026-05-08 17:51 40.87333 29.28136 2363 ft 191 kts 212°
2026-05-08 17:51 40.86115 29.27403 3065 ft 197 kts 202°
2026-05-08 17:51 40.84780 29.26655 3264 ft 220 kts 207°
2026-05-08 17:51 40.83384 29.25661 3557 ft 234 kts 211°
2026-05-08 17:52 40.81976 29.24512 4059 ft 244 kts 213°
2026-05-08 17:52 40.80561 29.23277 4851 ft 243 kts 213°
2026-05-08 17:52 40.77746 29.20830 6401 ft 244 kts 202°
2026-05-08 17:53 40.76090 29.20367 7077 ft 247 kts 184°
2026-05-08 17:53 40.74356 29.20500 7507 ft 262 kts 164°
2026-05-08 17:53 40.72674 29.21503 8120 ft 268 kts 156°
2026-05-08 17:53 40.70987 29.22597 8811 ft 271 kts 156°
2026-05-08 17:54 40.69280 29.23683 9505 ft 274 kts 157°
2026-05-08 17:54 40.67546 29.24773 10180 ft 278 kts 157°
2026-05-08 17:54 40.65746 29.25898 10422 ft 297 kts 157°
2026-05-08 17:54 40.63809 29.27103 10582 ft 318 kts 156°
2026-05-08 17:55 40.61744 29.28386 10747 ft 338 kts 156°
2026-05-08 17:55 40.59558 29.29746 10932 ft 355 kts 156°
2026-05-08 17:55 40.57296 29.31154 11384 ft 363 kts 156°
2026-05-08 17:55 40.55041 29.32558 12042 ft 364 kts 156°
2026-05-08 17:56 40.52704 29.34000 12628 ft 369 kts 156°
2026-05-08 17:56 40.50390 29.35394 13183 ft 373 kts 156°
2026-05-08 17:56 40.48020 29.36809 13791 ft 375 kts 157°
2026-05-08 17:56 40.45636 29.38230 14324 ft 379 kts 157°
2026-05-08 17:57 40.43219 29.39672 14819 ft 383 kts 157°
2026-05-08 17:57 40.40779 29.41128 15316 ft 387 kts 158°
2026-05-08 17:57 40.38319 29.42597 15817 ft 391 kts 158°
2026-05-08 17:57 40.35833 29.44089 16322 ft 395 kts 158°
2026-05-08 17:58 40.33324 29.45590 16798 ft 399 kts 158°
2026-05-08 17:58 40.30788 29.47101 17287 ft 402 kts 159°
2026-05-08 17:58 40.28225 29.48627 17768 ft 406 kts 159°
2026-05-08 17:58 40.25638 29.50166 18172 ft 411 kts 159°
2026-05-08 17:59 40.23018 29.51726 18521 ft 417 kts 159°
2026-05-08 17:59 40.20405 29.53281 18929 ft 419 kts 159°
2026-05-08 17:59 40.17741 29.54866 19361 ft 422 kts 159°
2026-05-08 17:59 40.15052 29.56465 19717 ft 426 kts 159°
2026-05-08 18:00 40.12344 29.58072 20116 ft 429 kts 159°
2026-05-08 18:00 40.06865 29.61321 20943 ft 436 kts 159°
2026-05-08 18:00 40.04093 29.62963 21314 ft 439 kts 159°
2026-05-08 18:01 40.01299 29.64616 21606 ft 444 kts 159°
2026-05-08 18:01 39.98474 29.66286 21965 ft 447 kts 159°
2026-05-08 18:01 39.95639 29.67961 22352 ft 449 kts 159°
2026-05-08 18:01 39.92766 29.69577 22711 ft 449 kts 165°
2026-05-08 18:02 39.89713 29.70205 23003 ft 443 kts 186°
2026-05-08 18:02 39.86729 29.69635 23378 ft 437 kts 200°
2026-05-08 18:02 39.83956 29.68086 23712 ft 433 kts 213°
2026-05-08 18:02 39.81376 29.66051 23976 ft 436 kts 215°
2026-05-08 18:03 39.78798 29.63964 24137 ft 438 kts 215°
2026-05-08 18:03 39.76199 29.61872 24131 ft 439 kts 215°
2026-05-08 18:03 39.73580 29.59794 24259 ft 443 kts 214°
2026-05-08 18:03 39.70949 29.57733 24604 ft 443 kts 214°
2026-05-08 18:04 39.68316 29.55684 25056 ft 440 kts 214°
2026-05-08 18:04 39.65695 29.53650 25499 ft 438 kts 215°
2026-05-08 18:04 39.63091 29.51616 25901 ft 436 kts 216°
2026-05-08 18:04 39.60534 29.49501 26126 ft 437 kts 217°
2026-05-08 18:05 39.58028 29.47348 26128 ft 437 kts 218°
2026-05-08 18:05 39.55523 29.45170 26389 ft 431 kts 218°
2026-05-08 18:05 39.53040 29.43011 26658 ft 430 kts 218°
2026-05-08 18:05 39.50550 29.40858 26917 ft 430 kts 218°
2026-05-08 18:06 39.48063 29.38719 27220 ft 429 kts 218°
2026-05-08 18:06 39.45579 29.36593 27551 ft 427 kts 218°
2026-05-08 18:06 39.43103 29.34481 27876 ft 426 kts 219°
2026-05-08 18:06 39.40637 29.32383 28212 ft 424 kts 219°
2026-05-08 18:07 39.38175 29.30291 28545 ft 422 kts 219°
2026-05-08 18:07 39.35765 29.28245 28892 ft 420 kts 219°
2026-05-08 18:07 39.33358 29.26204 29219 ft 418 kts 219°
2026-05-08 18:07 39.30932 29.24146 29594 ft 416 kts 220°
2026-05-08 18:08 39.28522 29.22102 29935 ft 414 kts 220°
2026-05-08 18:08 39.26117 29.20067 30165 ft 415 kts 220°
2026-05-08 18:08 39.21242 29.15936 30135 ft 421 kts 220°
2026-05-08 18:09 39.16352 29.11816 30122 ft 418 kts 220°
2026-05-08 18:09 39.11446 29.07680 30156 ft 427 kts 220°
2026-05-08 18:10 39.06458 29.03479 30150 ft 436 kts 220°
2026-05-08 18:10 39.01410 28.99237 30147 ft 445 kts 220°
2026-05-08 18:11 38.96179 28.94854 30152 ft 452 kts 219°
2026-05-08 18:11 38.90925 28.90466 30132 ft 448 kts 219°
2026-05-08 18:12 38.85714 28.86119 30112 ft 445 kts 219°
2026-05-08 18:12 38.80532 28.81800 30135 ft 444 kts 219°
2026-05-08 18:13 38.75387 28.77515 30134 ft 444 kts 219°
2026-05-08 18:13 38.70209 28.73206 30134 ft 444 kts 219°
2026-05-08 18:14 38.65005 28.68893 30126 ft 447 kts 219°
2026-05-08 18:14 38.59560 28.64951 30102 ft 460 kts 205°
2026-05-08 18:15 38.53157 28.63530 30119 ft 480 kts 185°
2026-05-08 18:15 38.46500 28.64085 30118 ft 484 kts 181°
2026-05-08 18:16 38.39793 28.64758 30131 ft 485 kts 182°
2026-05-08 18:16 38.33065 28.65364 30113 ft 485 kts 182°
2026-05-08 18:17 38.26341 28.65922 30112 ft 483 kts 182°
2026-05-08 18:17 38.23900 28.66125 30224 ft 6 kts 214°
2026-05-08 18:17 38.23518 28.65807 25434 ft 215 kts 230°
2026-05-08 18:18 38.21968 28.63953 24143 ft 333 kts 228°
2026-05-08 18:18 38.20112 28.62139 24482 ft 348 kts 213°
2026-05-08 18:18 38.17712 28.61221 24124 ft 390 kts 189°
2026-05-08 18:18 38.14894 28.61647 23772 ft 430 kts 164°
2026-05-08 18:19 38.12148 28.63339 23839 ft 446 kts 154°
2026-05-08 18:19 38.09387 28.65204 24049 ft 448 kts 159°
2026-05-08 18:19 38.06515 28.66642 24606 ft 440 kts 167°
2026-05-08 18:19 38.03575 28.67560 25141 ft 433 kts 174°
2026-05-08 18:20 38.00616 28.68088 25683 ft 426 kts 179°
2026-05-08 18:20 37.97687 28.68394 26244 ft 421 kts 181°
2026-05-08 18:20 37.94782 28.68598 26845 ft 415 kts 183°
2026-05-08 18:20 37.91911 28.68774 27438 ft 411 kts 183°
2026-05-08 18:21 37.89102 28.68964 28041 ft 408 kts 183°
2026-05-08 18:21 37.86287 28.69175 28642 ft 403 kts 183°
2026-05-08 18:21 37.83500 28.69397 29257 ft 399 kts 183°
2026-05-08 18:21 37.80714 28.69623 29541 ft 404 kts 183°
2026-05-08 18:22 37.77893 28.69854 29845 ft 408 kts 183°
2026-05-08 18:22 37.75047 28.70085 30121 ft 412 kts 183°
2026-05-08 18:22 37.69186 28.70553 30144 ft 431 kts 183°
2026-05-08 18:23 37.63073 28.71038 30147 ft 449 kts 182°
2026-05-08 18:23 37.56802 28.71552 30134 ft 451 kts 182°
2026-05-08 18:24 37.53712 28.71812 30007 ft 440 kts 182°
2026-05-08 18:24 37.50754 28.72061 29970 ft 426 kts 182°
2026-05-08 18:24 37.47829 28.72301 29728 ft 416 kts 183°
2026-05-08 18:24 37.44967 28.72531 29495 ft 407 kts 183°
2026-05-08 18:25 37.42171 28.72754 29229 ft 400 kts 183°
2026-05-08 18:25 37.39406 28.72843 28790 ft 392 kts 194°
2026-05-08 18:25 37.36875 28.71903 28373 ft 372 kts 215°
2026-05-08 18:25 37.34777 28.70095 27812 ft 363 kts 229°
2026-05-08 18:26 37.33156 28.67724 27259 ft 355 kts 243°
2026-05-08 18:26 37.31890 28.65052 26600 ft 359 kts 245°
2026-05-08 18:26 37.30667 28.62275 25823 ft 367 kts 246°
2026-05-08 18:26 37.29448 28.59474 25075 ft 374 kts 245°
2026-05-08 18:27 37.28184 28.56595 24341 ft 379 kts 245°
2026-05-08 18:27 37.27314 28.54632 23838 ft 383 kts 245°
2026-05-08 18:27 37.25572 28.50745 22727 ft 388 kts 244°
2026-05-08 18:27 37.24236 28.47790 21901 ft 391 kts 244°
2026-05-08 18:28 37.22886 28.44812 21105 ft 394 kts 244°
2026-05-08 18:28 37.21525 28.41819 20327 ft 396 kts 244°
2026-05-08 18:28 37.20159 28.38818 19564 ft 397 kts 244°
2026-05-08 18:28 37.18801 28.35837 19305 ft 385 kts 244°
2026-05-08 18:29 37.17500 28.32983 19206 ft 369 kts 244°
2026-05-08 18:29 37.16267 28.30276 19115 ft 355 kts 244°
2026-05-08 18:29 37.15061 28.27626 18871 ft 347 kts 244°
2026-05-08 18:29 37.13869 28.25014 18434 ft 345 kts 244°
2026-05-08 18:30 37.12683 28.22425 18054 ft 341 kts 244°
2026-05-08 18:30 37.11499 28.19846 17503 ft 342 kts 244°
2026-05-08 18:30 37.10316 28.17270 17022 ft 340 kts 244°
2026-05-08 18:30 37.09146 28.14728 16820 ft 331 kts 244°
2026-05-08 18:31 37.08019 28.12275 16737 ft 319 kts 244°
2026-05-08 18:31 37.07106 28.09811 16571 ft 306 kts 261°
2026-05-08 18:31 37.06923 28.07216 16360 ft 296 kts 276°
2026-05-08 18:31 37.07230 28.04728 16021 ft 293 kts 283°
2026-05-08 18:32 37.07675 28.02245 15702 ft 291 kts 284°
2026-05-08 18:32 37.08121 27.99845 15404 ft 289 kts 284°
2026-05-08 18:32 37.08569 27.97404 15061 ft 288 kts 284°
2026-05-08 18:32 37.09006 27.94970 14727 ft 286 kts 284°
2026-05-08 18:33 37.09436 27.92536 14395 ft 286 kts 283°
2026-05-08 18:33 37.09859 27.90108 14072 ft 285 kts 283°
2026-05-08 18:33 37.10277 27.87689 13755 ft 283 kts 283°
2026-05-08 18:33 37.10690 27.85288 13449 ft 280 kts 283°
2026-05-08 18:34 37.11099 27.82911 13118 ft 279 kts 283°
2026-05-08 18:34 37.11507 27.80541 12772 ft 278 kts 283°
2026-05-08 18:34 37.11913 27.78185 12434 ft 276 kts 283°
2026-05-08 18:34 37.12373 27.75890 12117 ft 274 kts 287°
2026-05-08 18:35 37.12925 27.73606 11781 ft 273 kts 288°
2026-05-08 18:35 37.13491 27.71321 11293 ft 278 kts 288°
2026-05-08 18:35 37.14064 27.68992 10818 ft 281 kts 288°
2026-05-08 18:35 37.14635 27.66639 10341 ft 282 kts 287°
2026-05-08 18:36 37.15195 27.64312 9852 ft 277 kts 287°
2026-05-08 18:36 37.15742 27.62028 9345 ft 272 kts 287°
2026-05-08 18:36 37.16282 27.59769 8908 ft 267 kts 287°
2026-05-08 18:36 37.16805 27.57582 8662 ft 255 kts 287°
2026-05-08 18:37 37.17298 27.55516 8664 ft 241 kts 287°
2026-05-08 18:37 37.17759 27.53573 8646 ft 232 kts 287°
2026-05-08 18:37 37.18222 27.51628 8447 ft 236 kts 287°
2026-05-08 18:37 37.18691 27.49652 8197 ft 237 kts 287°
2026-05-08 18:38 37.19160 27.47670 7895 ft 237 kts 286°
2026-05-08 18:38 37.19630 27.45685 7585 ft 238 kts 286°
2026-05-08 18:38 37.20104 27.43680 7249 ft 241 kts 286°
2026-05-08 18:38 37.20583 27.41658 6920 ft 243 kts 286°
2026-05-08 18:39 37.21065 27.39622 6593 ft 245 kts 286°
2026-05-08 18:39 37.21547 27.37589 6235 ft 248 kts 286°
2026-05-08 18:39 37.22317 27.35681 5875 ft 248 kts 311°
2026-05-08 18:39 37.23758 27.34521 5510 ft 250 kts 340°
2026-05-08 18:40 37.25478 27.34279 5143 ft 251 kts
2026-05-08 18:40 37.27177 27.34756 4792 ft 249 kts 15°
2026-05-08 18:40 37.28820 27.35378 4432 ft 245 kts 17°
2026-05-08 18:40 37.30316 27.36321 4060 ft 239 kts 45°
2026-05-08 18:41 37.31157 27.37986 4047 ft 223 kts 74°
2026-05-08 18:41 37.31354 27.39866 3882 ft 215 kts 99°
2026-05-08 18:41 37.31058 27.41649 3697 ft 202 kts 109°
2026-05-08 18:41 37.30677 27.43289 3616 ft 196 kts 110°
2026-05-08 18:42 37.30286 27.44906 3579 ft 193 kts 110°
2026-05-08 18:42 37.29892 27.46537 3321 ft 196 kts 110°
2026-05-08 18:42 37.29502 27.48155 3042 ft 187 kts 109°
2026-05-08 18:42 37.29143 27.49654 2754 ft 173 kts 109°
2026-05-08 18:43 37.28809 27.51046 2517 ft 161 kts 109°
2026-05-08 18:43 37.28488 27.52382 2282 ft 159 kts 109°
2026-05-08 18:43 37.28171 27.53704 2057 ft 159 kts 109°
2026-05-08 18:43 37.27855 27.55028 1825 ft 158 kts 108°
2026-05-08 18:44 37.27541 27.56344 1605 ft 157 kts 108°
2026-05-08 18:44 37.27221 27.57650 1385 ft 156 kts 108°
2026-05-08 18:44 37.26894 27.58945 1159 ft 155 kts 107°
2026-05-08 18:44 37.26573 27.60252 902 ft 158 kts 108°
2026-05-08 18:45 37.26270 27.61562 618 ft 154 kts 106°
2026-05-08 18:45 37.25987 27.62830 432 ft 152 kts 108°
2026-05-08 18:45 37.25686 27.64089 242 ft 150 kts 105°
2026-05-08 18:45 37.25394 27.65346 29 ft 148 kts 106°
2026-05-08 18:46 37.25206 27.66132 16 ft 128 kts 107°
2026-05-08 18:46 37.24927 27.67288 23 ft 62 kts 106°
2026-05-08 18:46 37.24864 27.67547 28 ft 21 kts 105°
2026-05-08 18:46 37.24843 27.67624 26 ft 13 kts 113°
2026-05-08 18:47 37.24853 27.67661 29 ft 1 kts 347°
2026-05-08 18:47 37.24858 27.67651 28 ft 4 kts 292°
2026-05-08 18:47 37.24863 27.67576 26 ft 13 kts 273°
2026-05-08 18:47 37.24865 27.67469 24 ft 10 kts 229°
2026-05-08 18:48 37.24809 27.67504 26 ft 11 kts 131°
2026-05-08 18:48 37.24731 27.67556 25 ft 15 kts 213°
2026-05-08 18:48 37.24733 27.67388 24 ft 36 kts 284°
2026-05-08 18:48 37.24734 27.67194 21 ft 16 kts 202°
2026-05-08 18:49 37.24636 27.67170 23 ft 12 kts 184°
2026-05-08 18:49 37.24590 27.67183 21 ft 0 kts 193°
2026-05-08 18:49 37.24554 27.67170 21 ft 4 kts 196°
2026-05-08 18:49 37.24553 27.67169 21 ft 0 kts 196°